Content
SEND FEEDBACK

Daily
Averages
Monthly
Summary
United States of America

WILMINGTON, NORTH CAROLINA


Home > North America > United States > North Carolina
Elevation: 72 feet     Latitude: 34 16N     Longitude: 077 54W

WEATHER
 
SELECT A DAY
Number of Records: 208,938;   Date Range: 1/1/95 - 8/12/14
 
SHARE

PRINT THIS DATA

[ ← Previous Day ]
WEATHER ALMANAC - NOVEMBER 9, 2013
[ Next Day → ]
[ °C ]   °F
Weather ElementAverageHighLow
Temperature51.6 °F64 °F (1:53 pm)37 °F (4:53 am)
Dewpoint40 °F48 °F (6:53 pm)30.9 °F (6:53 am)
Humidity66.5 %83 % (11:53 pm)42 % (11:53 am)
Barometer30.30 in30.37 in (7:53 am)30.22 in (11:53 pm)
Wind Speed1.5 mph6.9 mph (2:53 pm)
Weather ElementAverage
Visibility10 mi
Wind DirectionNNE (32.6 °)

Weather ElementTotal
Precipitation---
Heating Degree Days14.5 (Base 65)
Growing Degree Days0.5 (Base 50)
Averaged from 23 records on November 9, 2013
WEATHER CONDITIONS BREAKOUT
WIND DIRECTION BREAKOUT
WEATHER BY HOUR - NOVEMBER 9, 2013
[ °C ]   °F
Local TimeTemperatureDewpointHumidityBarometerVisibilityWind DirectionWind SpeedGust SpeedPrecipitationEventsConditions
1:53 AM39.9 °F33.1 °F77 %30.32 in10.0 miCalmClear
2:53 AM37.9 °F32.0 °F79 %30.33 in10.0 miCalmClear
3:53 AM37.9 °F32.0 °F79 %30.34 in10.0 miCalmClear
4:53 AM37.0 °F32.0 °F82 %30.33 in10.0 miCalmClear
5:53 AM37.0 °F32.0 °F82 %30.33 in10.0 miCalmClear
6:53 AM37.9 °F30.9 °F76 %30.35 in10.0 miCalmClear
7:53 AM44.1 °F35.1 °F71 %30.37 in10.0 miCalmClear
8:53 AM52.0 °F37.0 °F57 %30.37 in10.0 miNNE (30°)4.6 mphClear
9:53 AM57.0 °F35.1 °F44 %30.37 in10.0 miNE (50°)5.8 mphClear
10:53 AM57.9 °F37.0 °F46 %30.36 in10.0 miENE (60°)3.5 mphClear
11:53 AM61.0 °F37.9 °F42 %30.33 in10.0 miCalmClear
12:53 PM62.1 °F39.9 °F44 %30.30 in10.0 miSSW (200°)4.6 mphClear
1:53 PM64.0 °F41.0 °F43 %30.27 in10.0 miCalmClear
2:53 PM62.1 °F42.1 °F48 %30.27 in10.0 miSE (130°)6.9 mphClear
3:53 PM60.1 °F44.1 °F55 %30.27 in10.0 miESE (120°)4.6 mphClear
4:53 PM57.9 °F45.0 °F62 %30.26 in10.0 miCalmClear
5:53 PM55.9 °F46.9 °F72 %30.28 in10.0 miCalmClear
6:53 PM55.0 °F48.0 °F77 %30.29 in10.0 miCalmClear
7:53 PM55.0 °F46.9 °F74 %30.29 in10.0 miCalmClear
8:53 PM54.0 °F48.0 °F80 %30.25 in10.0 miSSE (160°)4.6 mphClear
9:53 PM54.0 °F46.9 °F77 %30.24 in10.0 miCalmClear
10:53 PM54.0 °F48.0 °F80 %30.23 in10.0 miCalmClear
11:53 PM53.1 °F48.0 °F83 %30.22 in10.0 miCalmClear
Hourly data recorded from KILM, located miles away from Wilmington, North Carolina







STORIES FROM OUR PARTNERS